"Pseudo-MPEC" for P10OQw1

Created 2019 Jun 15 19:08:34 UT using Find_Orb

Click here for an explanation of pseudo-MPECs

 
 Astrometry: 
     P10OQw1  C2019 06 080`!x)Cwxo7Rl\J^!CgAstrometrydg/fM^^1`/7%sw'K[aIX`oldF51
     P10OQw1  C2019 06 08R#-:jL[Slc7Ptx91Wfc88DT;Vn3L`wXV?pEkRx8;jhredacted;iF51
     P10OQw1  C2019 06 08h(UyH8`FUr:hxTf00@P'?u33NbVq*click8Lhere)`Du!:AV35EeF51
     P10OQw1  C2019 06 08iev_[%!nwiv_Emfori]tLwrHx3CUFYTeH?aXexplanationA7]w+F51

Station data:
(F51) Pan-STARRS 1, Haleakala  (N20.707235 W156.255910)  US/Hawaii.
   Observers N. Primak, A. Schultz, S. Watters, J. Thiel, T. Goggia. Measurer
   PS1 Science Consortium. 1.8-m Ritchey-Chrétien + CCD.

Orbital elements:  P10OQw1
   Perihelion 2019 Aug 3.713815 +/- 48.1 TT = 17:07:53 (JD 2458699.213815)
Epoch 2019 Jun  8.0 TT = JDT 2458642.5   Earth MOID: 0.0234   AutoNEOCP
M 309.95441020 +/- 35               (J2000 ecliptic)
n   0.88242326 +/- 0.449            Peri.   55.74177 +/- 60
a   1.07651003 +/- 0.365            Node   256.00779 +/- 0.33
e   0.0579541 +/- 0.282             Incl.   12.33778 +/- 14
P   1.12/407.96d           H 26.8   G  0.15   U 12.2  SR
q 1.01412182 +/- 0.144    Q 1.13889825 +/- 29.3
From 4 observations 2019 June 8 (44.1 min); mean residual 0".14
Residuals in arcseconds: 
190608 F51  .13+  .06+    190608 F51  .06-  .27-    
190608 F51  .16-  .04+    190608 F51  .10+  .17+    

Ephemerides (geocentric):
Date (UTC) HH   RA              Dec         delta   r     elong  mag " sig PA
---- -- -- --  -------------   -----------  ------ ------ -----  --- ---- ---
2019 06 15 19  16 28 00.469   +36 48 53.29  .03538 1.0328 117.9 21.8  41d 161
2019 06 15 20  16 28 06.743   +36 58 59.80  .03549 1.0327 117.7 21.8  41d 161
2019 06 15 21  16 28 13.007   +37 09 02.31  .03560 1.0327 117.5 21.8  41d 161
2019 06 15 22  16 28 19.263   +37 19 00.87  .03572 1.0327 117.4 21.8  41d 161
2019 06 15 23  16 28 25.509   +37 28 55.49  .03583 1.0327 117.2 21.8  41d 161
2019 06 16 00  16 28 31.746   +37 38 46.20  .03595 1.0326 117.0 21.8  41d 161
2019 06 16 01  16 28 37.973   +37 48 33.04  .03606 1.0326 116.9 21.8  41d 161
2019 06 16 02  16 28 44.192   +37 58 16.03  .03618 1.0326 116.7 21.8  41d 161
2019 06 16 03  16 28 50.401   +38 07 55.19  .03629 1.0325 116.6 21.8  41d 161
2019 06 16 04  16 28 56.601   +38 17 30.56  .03641 1.0325 116.4 21.9  41d 161
2019 06 16 05  16 29 02.792   +38 27 02.17  .03652 1.0325 116.3 21.9  41d 161
2019 06 16 06  16 29 08.973   +38 36 30.03  .03664 1.0324 116.1 21.9  41d 161
2019 06 16 07  16 29 15.145   +38 45 54.18  .03675 1.0324 115.9 21.9  41d 161
2019 06 16 08  16 29 21.309   +38 55 14.64  .03687 1.0324 115.8 21.9  41d 161
2019 06 16 09  16 29 27.463   +39 04 31.45  .03699 1.0324 115.6 21.9  41d 161
2019 06 16 10  16 29 33.607   +39 13 44.62  .03711 1.0323 115.5 21.9  41d 161
2019 06 16 11  16 29 39.743   +39 22 54.18  .03722 1.0323 115.3 21.9  41d 161
2019 06 16 12  16 29 45.870   +39 32 00.17  .03734 1.0323 115.2 21.9  40d 161
2019 06 16 13  16 29 51.987   +39 41 02.60  .03746 1.0322 115.0 22.0  40d 161
2019 06 16 14  16 29 58.095   +39 50 01.50  .03758 1.0322 114.9 22.0  40d 161
2019 06 16 15  16 30 04.194   +39 58 56.91  .03770 1.0322 114.7 22.0  40d 161
2019 06 16 16  16 30 10.285   +40 07 48.84  .03781 1.0321 114.6 22.0  40d 161
2019 06 16 17  16 30 16.365   +40 16 37.31  .03793 1.0321 114.4 22.0  40d 162
2019 06 16 18  16 30 22.437   +40 25 22.37  .03805 1.0321 114.3 22.0  40d 162
2019 06 16 19  16 30 28.500   +40 34 04.03  .03817 1.0321 114.2 22.0  40d 162
2019 06 16 20  16 30 34.554   +40 42 42.32  .03829 1.0320 114.0 22.0  40d 162
2019 06 16 21  16 30 40.598   +40 51 17.25  .03841 1.0320 113.9 22.0  40d 162
2019 06 16 22  16 30 46.634   +40 59 48.87  .03853 1.0320 113.7 22.1  40d 162
2019 06 16 23  16 30 52.660   +41 08 17.19  .03865 1.0319 113.6 22.1  40d 162
2019 06 17 00  16 30 58.678   +41 16 42.24  .03877 1.0319 113.4 22.1  40d 162
2019 06 17 01  16 31 04.686   +41 25 04.04  .03889 1.0319 113.3 22.1  40d 162
2019 06 17 02  16 31 10.685   +41 33 22.61  .03901 1.0319 113.2 22.1  40d 162
2019 06 17 03  16 31 16.676   +41 41 37.99  .03914 1.0318 113.0 22.1  40d 162
2019 06 17 04  16 31 22.657   +41 49 50.20  .03926 1.0318 112.9 22.1  40d 162
2019 06 17 05  16 31 28.629   +41 57 59.25  .03938 1.0318 112.8 22.1  40d 162
2019 06 17 06  16 31 34.593   +42 06 05.18  .03950 1.0317 112.6 22.1  40d 162
2019 06 17 07  16 31 40.547   +42 14 08.00  .03962 1.0317 112.5 22.1  40d 162
2019 06 17 08  16 31 46.492   +42 22 07.74  .03975 1.0317 112.4 22.2  40d 162
2019 06 17 09  16 31 52.429   +42 30 04.43  .03987 1.0316 112.2 22.2  40d 162
2019 06 17 10  16 31 58.356   +42 37 58.09  .03999 1.0316 112.1 22.2  39d 162
2019 06 17 11  16 32 04.274   +42 45 48.74  .04011 1.0316 112.0 22.2  39d 162
2019 06 17 12  16 32 10.184   +42 53 36.40  .04024 1.0316 111.8 22.2  39d 162
2019 06 17 13  16 32 16.085   +43 01 21.10  .04036 1.0315 111.7 22.2  39d 162
2019 06 17 14  16 32 21.976   +43 09 02.85  .04048 1.0315 111.6 22.2  39d 162
2019 06 17 15  16 32 27.859   +43 16 41.69  .04061 1.0315 111.5 22.2  39d 162
2019 06 17 16  16 32 33.733   +43 24 17.64  .04073 1.0314 111.3 22.2  39d 162
2019 06 17 17  16 32 39.598   +43 31 50.71  .04085 1.0314 111.2 22.3  39d 162
2019 06 17 18  16 32 45.454   +43 39 20.92  .04098 1.0314 111.1 22.3  39d 162